Time,TemperatureF,DewpointF,PressureIn,WindDirection,WindDirectionDegrees,WindSpeedMPH,WindSpeedGustMPH,Humidity,HourlyPrecipIn,Conditions,Clouds,dailyrainin,SoftwareType,DateUTC
2013-06-09 06:13:00,67.9,55.7,29.88,ESE,113,6.0,11.0,65,0.00,,,0.00,VWS V14.01,2013-06-09 11:13:00,
2013-06-09 06:14:00,57.2,53.7,29.77,ENE,71,4.0,14.0,88,0.19,,,0.19,VWS V14.01,2013-06-09 11:14:00,
2013-06-09 06:15:00,57.3,53.8,29.77,East,86,6.0,14.0,88,0.19,,,0.19,VWS V14.01,2013-06-09 11:15:00,
2013-06-09 06:19:00,57.3,53.8,29.76,ENE,57,6.0,16.0,88,0.19,,,0.19,VWS V14.01,2013-06-09 11:19:00,
2013-06-09 06:24:00,57.3,53.5,29.76,ENE,67,7.0,18.0,87,0.19,,,0.19,VWS V14.01,2013-06-09 11:24:00,
2013-06-09 06:29:00,57.3,53.5,29.76,NE,50,11.0,18.0,87,0.19,,,0.19,VWS V14.01,2013-06-09 11:29:00,
2013-06-09 06:34:00,57.3,53.5,29.76,ENE,73,4.0,15.0,87,0.01,,,0.20,VWS V14.01,2013-06-09 11:34:00,
2013-06-09 06:39:00,57.2,53.4,29.76,NNE,22,4.0,16.0,87,0.01,,,0.20,VWS V14.01,2013-06-09 11:39:00,
2013-06-09 06:44:00,57.2,53.4,29.76,ENE,78,13.0,18.0,87,0.01,,,0.20,VWS V14.01,2013-06-09 11:44:00,
2013-06-09 06:49:00,57.2,53.7,29.76,ENE,78,11.0,21.0,88,0.01,,,0.20,VWS V14.01,2013-06-09 11:49:00,
2013-06-09 06:54:00,57.2,53.7,29.76,ESE,102,5.0,23.0,88,0.01,,,0.20,VWS V14.01,2013-06-09 11:54:00,
2013-06-09 06:59:00,57.2,53.7,29.76,East,81,9.0,23.0,88,0.01,,,0.20,VWS V14.01,2013-06-09 11:59:00,
2013-06-09 07:05:00,57.2,53.7,29.76,NE,53,8.0,18.0,88,0.02,,,0.21,VWS V14.01,2013-06-09 12:05:00,
2013-06-09 07:10:00,57.2,53.7,29.76,SSE,152,9.0,18.0,88,0.02,,,0.21,VWS V14.01,2013-06-09 12:10:00,
2013-06-09 07:15:00,57.2,53.7,29.76,ENE,75,4.0,18.0,88,0.02,,,0.21,VWS V14.01,2013-06-09 12:15:00,
2013-06-09 07:20:00,57.3,53.8,29.76,ESE,111,10.0,19.0,88,0.02,,,0.21,VWS V14.01,2013-06-09 12:20:00,
2013-06-09 07:25:00,57.3,53.8,29.75,East,79,0.0,25.0,88,0.02,,,0.21,VWS V14.01,2013-06-09 12:25:00,
2013-06-09 07:30:00,57.3,53.8,29.75,ENE,78,12.0,25.0,88,0.03,,,0.22,VWS V14.01,2013-06-09 12:30:00,
2013-06-09 07:35:00,57.3,53.5,29.75,ENE,74,7.0,14.0,87,0.03,,,0.22,VWS V14.01,2013-06-09 12:35:00,
2013-06-09 07:40:00,57.4,53.6,29.75,NE,47,6.0,15.0,87,0.03,,,0.22,VWS V14.01,2013-06-09 12:40:00,
2013-06-09 07:46:00,57.4,53.6,29.75,ENE,63,11.0,20.0,87,0.03,,,0.22,VWS V14.01,2013-06-09 12:46:00,
2013-06-09 07:51:00,57.5,53.7,29.75,ESE,107,13.0,20.0,87,0.03,,,0.22,VWS V14.01,2013-06-09 12:51:00,
2013-06-09 07:56:00,57.5,53.7,29.75,East,100,7.0,20.0,87,0.03,,,0.22,VWS V14.01,2013-06-09 12:56:00,
2013-06-09 08:01:00,57.5,53.7,29.76,East,98,5.0,12.0,87,0.02,,,0.22,VWS V14.01,2013-06-09 13:01:00,
2013-06-09 08:06:00,57.4,53.6,29.76,East,101,9.0,20.0,87,0.02,,,0.22,VWS V14.01,2013-06-09 13:06:00,
2013-06-09 08:11:00,57.5,53.7,29.75,East,100,10.0,23.0,87,0.02,,,0.22,VWS V14.01,2013-06-09 13:11:00,
2013-06-09 08:16:00,57.5,53.7,29.76,East,82,7.0,25.0,87,0.03,,,0.23,VWS V14.01,2013-06-09 13:16:00,
2013-06-09 08:21:00,57.4,53.6,29.75,East,80,10.0,25.0,87,0.03,,,0.23,VWS V14.01,2013-06-09 13:21:00,
2013-06-09 08:26:00,57.4,53.6,29.75,ENE,77,13.0,25.0,87,0.03,,,0.23,VWS V14.01,2013-06-09 13:26:00,
2013-06-09 08:30:00,57.4,53.6,29.75,East,83,16.0,25.0,87,0.03,,,0.23,VWS V15.00,2013-06-09 13:30:00,
2013-06-09 08:31:00,57.4,53.6,29.75,NNE,31,14.0,19.0,87,0.01,,,0.23,VWS V14.01,2013-06-09 13:31:00,
2013-06-09 08:36:00,57.4,53.6,29.75,NE,47,4.0,19.0,87,0.01,,,0.23,VWS V14.01,2013-06-09 13:36:00,
2013-06-09 08:42:00,57.4,53.6,29.75,ENE,65,5.0,19.0,87,0.01,,,0.23,VWS V14.01,2013-06-09 13:42:00,
2013-06-09 08:47:00,57.4,53.6,29.75,ENE,74,1.0,19.0,87,0.01,,,0.23,VWS V14.01,2013-06-09 13:47:00,
2013-06-09 08:52:00,57.4,53.6,29.75,ENE,73,7.0,19.0,87,0.01,,,0.23,VWS V14.01,2013-06-09 13:52:00,
2013-06-09 08:57:00,57.4,53.6,29.75,ENE,67,5.0,19.0,87,0.02,,,0.24,VWS V14.01,2013-06-09 13:57:00,
2013-06-09 09:00:00,57.4,53.6,29.75,ENE,77,2.0,19.0,87,0.02,,,0.24,VWS V15.00,2013-06-09 14:00:00,
2013-06-09 09:02:00,57.4,53.6,29.75,ENE,68,3.0,17.0,87,0.02,,,0.24,VWS V14.01,2013-06-09 14:02:00,
2013-06-09 09:07:00,57.5,53.7,29.75,NE,48,15.0,24.0,87,0.02,,,0.24,VWS V14.01,2013-06-09 14:07:00,
2013-06-09 09:12:00,57.5,53.7,29.75,ENE,77,14.0,24.0,87,0.02,,,0.24,VWS V14.01,2013-06-09 14:12:00,
2013-06-09 09:17:00,57.5,53.7,29.75,East,96,7.0,24.0,87,0.02,,,0.24,VWS V14.01,2013-06-09 14:17:00,
2013-06-09 09:23:00,57.6,53.8,29.75,NE,48,7.0,24.0,87,0.02,,,0.24,VWS V14.01,2013-06-09 14:23:00,
2013-06-09 09:28:00,57.7,53.9,29.75,ESE,109,6.0,24.0,87,0.02,,,0.24,VWS V14.01,2013-06-09 14:28:00,
2013-06-09 09:33:00,57.9,54.1,29.75,NE,42,6.0,9.0,87,0.01,,,0.24,VWS V14.01,2013-06-09 14:33:00,
2013-06-09 09:38:00,58.1,54.3,29.75,East,90,3.0,13.0,87,0.01,,,0.24,VWS V14.01,2013-06-09 14:38:00,
2013-06-09 09:43:00,58.3,54.1,29.75,East,80,5.0,14.0,86,0.01,,,0.24,VWS V14.01,2013-06-09 14:43:00,
2013-06-09 09:48:00,58.4,53.9,29.75,NE,49,7.0,19.0,85,0.01,,,0.24,VWS V14.01,2013-06-09 14:48:00,
2013-06-09 09:54:00,58.5,54.0,29.75,East,91,4.0,19.0,85,0.01,,,0.24,VWS V14.01,2013-06-09 14:54:00,
2013-06-09 09:59:00,58.5,54.0,29.75,ENE,68,6.0,19.0,85,0.01,,,0.24,VWS V14.01,2013-06-09 14:59:00,
2013-06-09 10:04:00,58.4,53.6,29.75,East,88,8.0,16.0,84,0.00,,,0.24,VWS V14.01,2013-06-09 15:04:00,
2013-06-09 10:09:00,58.4,53.6,29.75,East,83,2.0,16.0,84,0.00,,,0.24,VWS V14.01,2013-06-09 15:09:00,
2013-06-09 10:14:00,58.4,53.6,29.75,East,93,6.0,16.0,84,0.00,,,0.24,VWS V14.01,2013-06-09 15:14:00,
2013-06-09 10:19:00,58.6,54.1,29.75,ENE,63,2.0,16.0,85,0.00,,,0.24,VWS V14.01,2013-06-09 15:19:00,
2013-06-09 10:24:00,58.8,54.0,29.75,ESE,108,12.0,16.0,84,0.00,,,0.24,VWS V14.01,2013-06-09 15:24:00,
2013-06-09 10:30:00,59.0,53.8,29.75,East,90,5.0,16.0,83,0.00,,,0.24,VWS V14.01,2013-06-09 15:30:00,
2013-06-09 10:35:00,59.1,54.0,29.75,ENE,69,5.0,12.0,83,0.01,,,0.25,VWS V14.01,2013-06-09 15:35:00,
2013-06-09 10:40:00,59.1,54.0,29.75,NE,56,10.0,16.0,83,0.01,,,0.25,VWS V14.01,2013-06-09 15:40:00,
2013-06-09 10:45:00,59.1,54.0,29.75,ENE,59,11.0,16.0,83,0.01,,,0.25,VWS V14.01,2013-06-09 15:45:00,
2013-06-09 10:50:00,59.3,54.2,29.75,ENE,59,9.0,16.0,83,0.01,,,0.25,VWS V14.01,2013-06-09 15:50:00,
2013-06-09 10:55:00,59.3,53.8,29.75,ENE,66,10.0,16.0,82,0.01,,,0.25,VWS V14.01,2013-06-09 15:55:00,
2013-06-09 11:00:00,59.3,53.8,29.76,NE,49,10.0,16.0,82,0.01,,,0.25,VWS V14.01,2013-06-09 16:00:00,
2013-06-09 11:06:00,59.3,53.8,29.76,NE,56,5.0,11.0,82,0.01,,,0.25,VWS V14.01,2013-06-09 16:06:00,
2013-06-09 11:11:00,59.3,53.8,29.76,East,84,4.0,11.0,82,0.01,,,0.25,VWS V14.01,2013-06-09 16:11:00,
2013-06-09 11:16:00,59.2,53.7,29.75,ENE,69,2.0,13.0,82,0.01,,,0.25,VWS V14.01,2013-06-09 16:16:00,
2013-06-09 11:21:00,59.3,53.8,29.76,ENE,60,3.0,14.0,82,0.01,,,0.25,VWS V14.01,2013-06-09 16:21:00,
2013-06-09 11:27:00,59.3,53.8,29.76,ENE,73,0.0,14.0,82,0.01,,,0.25,VWS V14.01,2013-06-09 16:27:00,
2013-06-09 11:32:00,59.4,53.9,29.76,ENE,58,4.0,8.0,82,0.00,,,0.25,VWS V14.01,2013-06-09 16:32:00,
2013-06-09 11:37:00,59.4,53.9,29.76,East,91,0.0,14.0,82,0.00,,,0.25,VWS V14.01,2013-06-09 16:37:00,
2013-06-09 11:42:00,59.5,54.0,29.76,ENE,61,2.0,14.0,82,0.00,,,0.25,VWS V14.01,2013-06-09 16:42:00,
2013-06-09 11:47:00,59.4,53.6,29.76,East,91,8.0,14.0,81,0.00,,,0.25,VWS V14.01,2013-06-09 16:47:00,
2013-06-09 11:52:00,59.4,53.9,29.76,ENE,58,0.0,14.0,82,0.01,,,0.26,VWS V14.01,2013-06-09 16:52:00,
2013-06-09 11:57:00,59.4,53.9,29.76,NE,56,2.0,14.0,82,0.01,,,0.26,VWS V14.01,2013-06-09 16:57:00,
2013-06-09 12:02:00,59.3,53.8,29.76,East,95,2.0,9.0,82,0.01,,,0.26,VWS V14.01,2013-06-09 17:02:00,
2013-06-09 12:08:00,59.3,53.8,29.76,East,80,0.0,10.0,82,0.01,,,0.26,VWS V14.01,2013-06-09 17:08:00,
2013-06-09 12:13:00,59.3,53.8,29.76,East,79,2.0,14.0,82,0.01,,,0.26,VWS V14.01,2013-06-09 17:13:00,
2013-06-09 12:18:00,59.3,53.8,29.76,ENE,77,1.0,14.0,82,0.01,,,0.26,VWS V14.01,2013-06-09 17:18:00,
2013-06-09 12:23:00,59.3,53.5,29.76,ENE,75,3.0,14.0,81,0.01,,,0.26,VWS V14.01,2013-06-09 17:23:00,
2013-06-09 12:28:00,59.3,53.8,29.76,East,89,2.0,14.0,82,0.01,,,0.26,VWS V14.01,2013-06-09 17:28:00,
2013-06-09 12:33:00,59.4,53.9,29.76,NNE,30,1.0,10.0,82,0.01,,,0.26,VWS V14.01,2013-06-09 17:33:00,
2013-06-09 12:38:00,59.4,53.9,29.76,NE,41,6.0,12.0,82,0.01,,,0.26,VWS V14.01,2013-06-09 17:38:00,
2013-06-09 12:44:00,59.4,53.9,29.76,ENE,58,5.0,12.0,82,0.01,,,0.26,VWS V14.01,2013-06-09 17:44:00,
2013-06-09 12:49:00,59.3,54.2,29.76,ENE,68,4.0,13.0,83,0.01,,,0.26,VWS V14.01,2013-06-09 17:49:00,
2013-06-09 12:54:00,59.2,54.0,29.76,East,80,3.0,13.0,83,0.01,,,0.26,VWS V14.01,2013-06-09 17:54:00,
2013-06-09 12:59:00,59.1,54.3,29.76,ENE,60,4.0,13.0,84,0.01,,,0.26,VWS V14.01,2013-06-09 17:59:00,
2013-06-09 13:00:00,59.1,54.6,29.76,ENE,71,0.0,13.0,85,0.01,,,0.26,VWS V15.00,2013-06-09 18:00:00,
2013-06-09 13:04:00,59.2,54.7,29.76,ENE,78,5.0,11.0,85,0.00,,,0.26,VWS V14.01,2013-06-09 18:04:00,
2013-06-09 13:09:00,59.3,54.8,29.76,East,90,9.0,12.0,85,0.00,,,0.26,VWS V14.01,2013-06-09 18:09:00,
2013-06-09 13:14:00,59.4,55.2,29.76,NE,42,0.0,14.0,86,0.00,,,0.26,VWS V14.01,2013-06-09 18:14:00,
2013-06-09 13:19:00,59.4,55.2,29.76,NE,39,8.0,14.0,86,0.01,,,0.27,VWS V14.01,2013-06-09 18:19:00,
2013-06-09 13:24:00,59.4,55.2,29.76,NE,35,5.0,14.0,86,0.01,,,0.27,VWS V14.01,2013-06-09 18:24:00,
2013-06-09 13:29:00,59.4,55.2,29.76,ENE,75,5.0,14.0,86,0.01,,,0.27,VWS V14.01,2013-06-09 18:29:00,
2013-06-09 13:30:00,59.5,55.3,29.76,NE,50,4.0,14.0,86,0.01,,,0.27,VWS V15.00,2013-06-09 18:30:00,
2013-06-09 13:34:00,59.5,55.3,29.76,ENE,65,6.0,6.0,86,0.01,,,0.27,VWS V14.01,2013-06-09 18:34:00,
2013-06-09 13:39:00,59.6,55.4,29.76,ENE,77,3.0,13.0,86,0.01,,,0.27,VWS V14.01,2013-06-09 18:39:00,
2013-06-09 13:44:00,59.7,55.8,29.76,ENE,65,5.0,13.0,87,0.01,,,0.27,VWS V14.01,2013-06-09 18:44:00,
2013-06-09 13:49:00,59.7,55.5,29.76,ENE,78,5.0,13.0,86,0.01,,,0.27,VWS V14.01,2013-06-09 18:49:00,
2013-06-09 13:54:00,59.6,55.4,29.76,East,90,6.0,13.0,86,0.01,,,0.27,VWS V14.01,2013-06-09 18:54:00,
2013-06-09 13:59:00,59.5,55.3,29.76,ENE,68,0.0,13.0,86,0.01,,,0.27,VWS V14.01,2013-06-09 18:59:00,
2013-06-09 14:05:00,59.5,55.3,29.76,NNE,25,1.0,10.0,86,0.01,,,0.27,VWS V14.01,2013-06-09 19:05:00,
2013-06-09 14:10:00,59.5,55.3,29.76,NE,41,4.0,10.0,86,0.01,,,0.27,VWS V14.01,2013-06-09 19:10:00,
2013-06-09 14:15:00,59.6,55.4,29.76,East,85,9.0,10.0,86,0.01,,,0.27,VWS V14.01,2013-06-09 19:15:00,
2013-06-09 14:20:00,59.7,55.5,29.76,ENE,60,0.0,10.0,86,0.01,,,0.27,VWS V14.01,2013-06-09 19:20:00,
2013-06-09 14:25:00,59.9,55.7,29.76,NE,49,1.0,10.0,86,0.01,,,0.27,VWS V14.01,2013-06-09 19:25:00,
2013-06-09 14:30:00,60.0,55.8,29.76,NE,50,0.0,10.0,86,0.02,,,0.28,VWS V14.01,2013-06-09 19:30:00,
2013-06-09 14:35:00,60.3,56.1,29.76,ESE,110,6.0,11.0,86,0.01,,,0.28,VWS V14.01,2013-06-09 19:35:00,
2013-06-09 14:40:00,60.6,56.4,29.75,ENE,69,5.0,11.0,86,0.01,,,0.28,VWS V14.01,2013-06-09 19:40:00,
2013-06-09 14:45:00,60.7,56.2,29.76,NE,46,4.0,13.0,85,0.01,,,0.28,VWS V14.01,2013-06-09 19:45:00,
2013-06-09 14:50:00,60.9,56.4,29.75,NE,46,4.0,13.0,85,0.01,,,0.28,VWS V14.01,2013-06-09 19:50:00,
2013-06-09 14:56:00,61.0,56.1,29.75,NNE,15,5.0,13.0,84,0.01,,,0.28,VWS V14.01,2013-06-09 19:56:00,
2013-06-09 15:00:00,61.1,56.2,29.75,East,88,5.0,13.0,84,0.01,,,0.28,VWS V15.00,2013-06-09 20:00:00,
2013-06-09 15:01:00,61.1,56.2,29.75,East,88,5.0,13.0,84,0.01,,,0.28,VWS V14.01,2013-06-09 20:01:00,
2013-06-09 15:06:00,61.2,56.3,29.75,ENE,65,3.0,10.0,84,0.01,,,0.28,VWS V14.01,2013-06-09 20:06:00,
2013-06-09 15:12:00,61.3,56.4,29.75,NE,40,9.0,11.0,84,0.01,,,0.28,VWS V14.01,2013-06-09 20:12:00,
2013-06-09 15:17:00,61.3,56.4,29.75,ENE,57,3.0,11.0,84,0.01,,,0.28,VWS V14.01,2013-06-09 20:17:00,
2013-06-09 15:22:00,61.3,56.4,29.75,ENE,57,0.0,11.0,84,0.01,,,0.28,VWS V14.01,2013-06-09 20:22:00,
2013-06-09 15:27:00,61.3,56.4,29.75,NE,38,4.0,11.0,84,0.01,,,0.28,VWS V14.01,2013-06-09 20:27:00,
2013-06-09 15:32:00,61.4,56.5,29.75,East,80,2.0,12.0,84,0.00,,,0.28,VWS V14.01,2013-06-09 20:32:00,
2013-06-09 15:37:00,61.4,56.5,29.75,East,83,1.0,12.0,84,0.00,,,0.28,VWS V14.01,2013-06-09 20:37:00,
2013-06-09 15:42:00,61.4,56.5,29.75,East,91,6.0,12.0,84,0.00,,,0.28,VWS V14.01,2013-06-09 20:42:00,
2013-06-09 15:47:00,61.4,56.5,29.75,NE,49,4.0,12.0,84,0.00,,,0.28,VWS V14.01,2013-06-09 20:47:00,
2013-06-09 15:52:00,61.4,56.5,29.75,ENE,73,1.0,12.0,84,0.00,,,0.28,VWS V14.01,2013-06-09 20:52:00,
2013-06-09 15:57:00,61.4,56.5,29.75,ENE,57,0.0,12.0,84,0.00,,,0.28,VWS V14.01,2013-06-09 20:57:00,
2013-06-09 16:02:00,61.6,56.4,29.75,NE,49,0.0,9.0,83,0.00,,,0.28,VWS V14.01,2013-06-09 21:02:00,
2013-06-09 16:07:00,61.8,56.9,29.75,ENE,67,4.0,9.0,84,0.00,,,0.28,VWS V14.01,2013-06-09 21:07:00,
2013-06-09 16:12:00,62.1,57.2,29.75,NE,46,1.0,9.0,84,0.00,,,0.28,VWS V14.01,2013-06-09 21:12:00,
2013-06-09 16:18:00,62.3,57.1,29.76,East,81,4.0,9.0,83,0.00,,,0.28,VWS V14.01,2013-06-09 21:18:00,
2013-06-09 16:23:00,62.4,57.2,29.75,East,81,1.0,10.0,83,0.00,,,0.28,VWS V14.01,2013-06-09 21:23:00,
2013-06-09 16:28:00,62.5,56.9,29.75,ENE,58,1.0,12.0,82,0.00,,,0.28,VWS V14.01,2013-06-09 21:28:00,
2013-06-09 16:33:00,62.7,57.5,29.75,ENE,58,5.0,9.0,83,0.00,,,0.28,VWS V14.01,2013-06-09 21:33:00,
2013-06-09 16:38:00,62.8,57.2,29.75,ENE,63,5.0,9.0,82,0.00,,,0.28,VWS V14.01,2013-06-09 21:38:00,
2013-06-09 16:43:00,62.7,57.1,29.76,ENE,73,0.0,9.0,82,0.00,,,0.28,VWS V14.01,2013-06-09 21:43:00,
2013-06-09 16:48:00,63.0,57.8,29.75,ENE,76,2.0,12.0,83,0.00,,,0.28,VWS V14.01,2013-06-09 21:48:00,
2013-06-09 16:53:00,63.4,57.8,29.75,ENE,61,0.0,12.0,82,0.00,,,0.28,VWS V14.01,2013-06-09 21:53:00,
2013-06-09 16:58:00,64.0,58.4,29.75,NE,43,4.0,12.0,82,0.00,,,0.28,VWS V14.01,2013-06-09 21:58:00,
2013-06-09 17:03:00,64.4,58.5,29.75,ENE,74,2.0,11.0,81,0.00,,,0.28,VWS V14.01,2013-06-09 22:03:00,
2013-06-09 17:08:00,65.0,59.0,29.75,East,81,1.0,12.0,81,0.00,,,0.28,VWS V14.01,2013-06-09 22:08:00,
2013-06-09 17:14:00,65.7,59.4,29.75,East,87,3.0,12.0,80,0.00,,,0.28,VWS V14.01,2013-06-09 22:14:00,
2013-06-09 17:19:00,65.7,58.7,29.75,NE,49,3.0,12.0,78,0.00,,,0.28,VWS V14.01,2013-06-09 22:19:00,
2013-06-09 17:24:00,65.5,58.8,29.75,ENE,73,5.0,12.0,79,0.00,,,0.28,VWS V14.01,2013-06-09 22:24:00,
2013-06-09 17:29:00,65.6,58.9,29.75,NE,40,0.0,14.0,79,0.00,,,0.28,VWS V14.01,2013-06-09 22:29:00,
2013-06-09 17:34:00,65.6,58.9,29.75,NNE,20,5.0,10.0,79,0.00,,,0.28,VWS V14.01,2013-06-09 22:34:00,
2013-06-09 17:39:00,65.2,58.9,29.75,NE,40,4.0,11.0,80,0.00,,,0.28,VWS V14.01,2013-06-09 22:39:00,
2013-06-09 17:44:00,65.2,58.9,29.75,ENE,66,4.0,11.0,80,0.00,,,0.28,VWS V14.01,2013-06-09 22:44:00,
2013-06-09 17:49:00,65.8,59.5,29.75,NE,43,5.0,11.0,80,0.00,,,0.28,VWS V14.01,2013-06-09 22:49:00,
2013-06-09 17:54:00,66.4,59.7,29.75,NNE,23,3.0,11.0,79,0.00,,,0.28,VWS V14.01,2013-06-09 22:54:00,
2013-06-09 17:59:00,66.4,59.3,29.75,ENE,58,1.0,11.0,78,0.00,,,0.28,VWS V14.01,2013-06-09 22:59:00,
2013-06-09 18:05:00,66.0,59.0,29.75,NE,56,1.0,6.0,78,0.00,,,0.28,VWS V14.01,2013-06-09 23:05:00,
2013-06-09 18:10:00,65.7,59.0,29.75,NE,49,5.0,6.0,79,0.00,,,0.28,VWS V14.01,2013-06-09 23:10:00,
2013-06-09 18:15:00,65.4,58.7,29.75,NE,50,0.0,6.0,79,0.00,,,0.28,VWS V14.01,2013-06-09 23:15:00,
2013-06-09 18:20:00,65.2,58.5,29.75,NNE,22,5.0,8.0,79,0.00,,,0.28,VWS V14.01,2013-06-09 23:20:00,
2013-06-09 18:25:00,65.0,58.7,29.76,NNE,19,0.0,8.0,80,0.00,,,0.28,VWS V14.01,2013-06-09 23:25:00,
2013-06-09 18:30:00,64.9,58.6,29.76,NNE,18,0.0,8.0,80,0.00,,,0.28,VWS V14.01,2013-06-09 23:30:00,
2013-06-09 18:35:00,65.0,58.7,29.75,NNE,19,0.0,6.0,80,0.00,,,0.28,VWS V14.01,2013-06-09 23:35:00,
2013-06-09 18:40:00,64.9,58.9,29.75,NE,41,0.0,6.0,81,0.00,,,0.28,VWS V14.01,2013-06-09 23:40:00,
2013-06-09 18:45:00,65.0,59.0,29.75,NNE,32,0.0,6.0,81,0.01,,,0.29,VWS V14.01,2013-06-09 23:45:00,
2013-06-09 18:51:00,65.0,59.0,29.75,ENE,74,1.0,8.0,81,0.01,,,0.29,VWS V14.01,2013-06-09 23:51:00,
2013-06-09 18:56:00,65.1,59.1,29.75,NE,54,0.0,8.0,81,0.01,,,0.29,VWS V14.01,2013-06-09 23:56:00,
2013-06-09 19:00:00,65.0,58.7,29.75,ENE,66,1.0,8.0,80,0.01,,,0.29,VWS V15.00,2013-06-10 00:00:00,
2013-06-09 19:01:00,65.0,58.7,29.75,ENE,67,0.0,8.0,80,0.01,,,0.29,VWS V14.01,2013-06-10 00:01:00,
2013-06-09 19:06:00,65.0,58.7,29.75,NNE,33,0.0,5.0,80,0.01,,,0.29,VWS V14.01,2013-06-10 00:06:00,
2013-06-09 19:11:00,65.0,59.0,29.76,North,6,0.0,6.0,81,0.01,,,0.29,VWS V14.01,2013-06-10 00:11:00,
2013-06-09 19:16:00,64.9,58.9,29.75,NNE,27,0.0,6.0,81,0.01,,,0.29,VWS V14.01,2013-06-10 00:16:00,
2013-06-09 19:21:00,65.1,59.1,29.75,NNE,21,0.0,6.0,81,0.01,,,0.29,VWS V14.01,2013-06-10 00:21:00,
2013-06-09 19:27:00,65.2,59.2,29.75,NNE,31,0.0,6.0,81,0.01,,,0.29,VWS V14.01,2013-06-10 00:27:00,
2013-06-09 19:32:00,65.0,59.0,29.76,NE,56,1.0,2.0,81,0.01,,,0.29,VWS V14.01,2013-06-10 00:32:00,
2013-06-09 19:37:00,64.9,58.9,29.76,North,359,3.0,6.0,81,0.01,,,0.29,VWS V14.01,2013-06-10 00:37:00,
2013-06-09 19:42:00,65.0,59.0,29.76,North,6,4.0,7.0,81,0.01,,,0.29,VWS V14.01,2013-06-10 00:42:00,
2013-06-09 19:47:00,65.2,58.9,29.76,NNE,19,2.0,9.0,80,0.01,,,0.29,VWS V14.01,2013-06-10 00:47:00,
2013-06-09 19:52:00,65.3,59.0,29.77,North,4,1.0,10.0,80,0.01,,,0.29,VWS V14.01,2013-06-10 00:52:00,
2013-06-09 19:57:00,65.4,59.1,29.77,NNE,23,0.0,10.0,80,0.01,,,0.29,VWS V14.01,2013-06-10 00:57:00,
2013-06-09 20:02:00,65.3,59.0,29.76,North,4,0.0,2.0,80,0.00,,,0.29,VWS V14.01,2013-06-10 01:02:00,
2013-06-09 20:07:00,65.2,58.9,29.77,North,9,3.0,3.0,80,0.00,,,0.29,VWS V14.01,2013-06-10 01:07:00,
2013-06-09 20:13:00,65.0,59.0,29.77,NNE,15,2.0,6.0,81,0.00,,,0.29,VWS V14.01,2013-06-10 01:13:00,
2013-06-09 20:18:00,64.8,58.8,29.77,North,11,0.0,7.0,81,0.00,,,0.29,VWS V14.01,2013-06-10 01:18:00,
2013-06-09 20:23:00,64.7,58.7,29.77,North,351,5.0,7.0,81,0.00,,,0.29,VWS V14.01,2013-06-10 01:23:00,
2013-06-09 20:28:00,64.5,58.5,29.77,North,350,0.0,8.0,81,0.00,,,0.29,VWS V14.01,2013-06-10 01:28:00,
2013-06-09 20:33:00,64.4,58.8,29.77,NNW,337,2.0,5.0,82,0.00,,,0.29,VWS V14.01,2013-06-10 01:33:00,
2013-06-09 20:39:00,64.3,58.7,29.77,NNW,338,4.0,6.0,82,0.00,,,0.29,VWS V14.01,2013-06-10 01:39:00,
2013-06-09 20:44:00,64.1,58.5,29.77,North,8,0.0,6.0,82,0.00,,,0.29,VWS V14.01,2013-06-10 01:44:00,
2013-06-09 20:49:00,64.0,58.7,29.78,North,4,2.0,6.0,83,0.00,,,0.29,VWS V14.01,2013-06-10 01:49:00,
2013-06-09 20:54:00,63.9,58.6,29.77,North,359,0.0,7.0,83,0.00,,,0.29,VWS V14.01,2013-06-10 01:54:00,
2013-06-09 20:59:00,63.7,58.5,29.77,NNE,14,0.0,7.0,83,0.00,,,0.29,VWS V14.01,2013-06-10 01:59:00,
2013-06-09 21:04:00,63.5,58.6,29.78,NNE,14,0.0,4.0,84,0.00,,,0.29,VWS V14.01,2013-06-10 02:04:00,
2013-06-09 21:09:00,63.3,58.4,29.78,NNE,13,3.0,4.0,84,0.00,,,0.29,VWS V14.01,2013-06-10 02:09:00,
2013-06-09 21:14:00,63.2,58.3,29.78,NNE,13,0.0,4.0,84,0.00,,,0.29,VWS V14.01,2013-06-10 02:14:00,
2013-06-09 21:19:00,63.0,58.1,29.78,NNE,13,0.0,4.0,84,0.00,,,0.29,VWS V14.01,2013-06-10 02:19:00,
2013-06-09 21:24:00,62.9,58.3,29.78,North,350,1.0,6.0,85,0.00,,,0.29,VWS V14.01,2013-06-10 02:24:00,
2013-06-09 21:29:00,62.7,58.1,29.79,North,350,0.0,6.0,85,0.00,,,0.29,VWS V14.01,2013-06-10 02:29:00,
2013-06-09 21:30:00,62.7,58.1,29.79,North,350,0.0,6.0,85,0.00,,,0.29,VWS V15.00,2013-06-10 02:30:00,
2013-06-09 21:35:00,62.6,58.0,29.79,North,350,1.0,5.0,85,0.00,,,0.29,VWS V14.01,2013-06-10 02:35:00,
2013-06-09 21:40:00,62.6,58.0,29.78,North,359,3.0,6.0,85,0.00,,,0.29,VWS V14.01,2013-06-10 02:40:00,
2013-06-09 21:45:00,62.5,58.3,29.79,North,351,3.0,7.0,86,0.00,,,0.29,VWS V14.01,2013-06-10 02:45:00,
2013-06-09 21:50:00,62.4,58.2,29.79,North,349,4.0,7.0,86,0.00,,,0.29,VWS V14.01,2013-06-10 02:50:00,
2013-06-09 21:55:00,62.2,58.0,29.79,North,4,3.0,7.0,86,0.00,,,0.29,VWS V14.01,2013-06-10 02:55:00,
2013-06-09 22:00:00,62.1,57.9,29.79,North,4,2.0,7.0,86,0.00,,,0.29,VWS V14.01,2013-06-10 03:00:00,
2013-06-09 22:05:00,62.1,57.9,29.79,North,4,4.0,6.0,86,0.00,,,0.29,VWS V14.01,2013-06-10 03:05:00,
2013-06-09 22:10:00,62.0,58.1,29.79,North,4,2.0,6.0,87,0.00,,,0.29,VWS V14.01,2013-06-10 03:10:00,
2013-06-09 22:15:00,61.9,58.0,29.79,North,4,0.0,6.0,87,0.00,,,0.29,VWS V14.01,2013-06-10 03:15:00,
2013-06-09 22:21:00,61.8,57.9,29.79,North,4,0.0,6.0,87,0.00,,,0.29,VWS V14.01,2013-06-10 03:21:00,
2013-06-09 22:26:00,61.8,57.9,29.80,North,5,0.0,6.0,87,0.00,,,0.29,VWS V14.01,2013-06-10 03:26:00,
2013-06-09 22:30:00,61.7,57.8,29.80,North,5,0.0,6.0,87,0.00,,,0.29,VWS V15.00,2013-06-10 03:30:00,
2013-06-09 22:31:00,61.7,57.8,29.80,North,5,0.0,6.0,87,0.00,,,0.29,VWS V14.01,2013-06-10 03:31:00,
2013-06-09 22:36:00,61.6,57.7,29.80,North,5,0.0,0.0,87,0.00,,,0.29,VWS V14.01,2013-06-10 03:36:00,
2013-06-09 22:41:00,61.6,58.0,29.80,North,4,3.0,4.0,88,0.00,,,0.29,VWS V14.01,2013-06-10 03:41:00,
2013-06-09 22:46:00,61.5,57.9,29.80,North,5,4.0,4.0,88,0.00,,,0.29,VWS V14.01,2013-06-10 03:46:00,
2013-06-09 22:51:00,61.4,57.8,29.80,North,4,0.0,4.0,88,0.00,,,0.29,VWS V14.01,2013-06-10 03:51:00,
2013-06-09 22:57:00,61.3,57.7,29.80,North,4,0.0,4.0,88,0.00,,,0.29,VWS V14.01,2013-06-10 03:57:00,
2013-06-09 23:00:00,61.3,57.7,29.80,North,4,0.0,5.0,88,0.00,,,0.29,VWS V15.00,2013-06-10 04:00:00,
2013-06-09 23:01:00,61.3,57.7,29.80,North,3,0.0,5.0,88,0.00,,,0.29,VWS V14.01,2013-06-10 04:01:00,
2013-06-09 23:02:00,61.2,57.6,29.80,North,4,0.0,0.0,88,0.00,,,0.29,VWS V14.01,2013-06-10 04:02:00,
2013-06-09 23:03:00,61.2,57.6,29.80,North,3,0.0,0.0,88,0.00,,,0.29,VWS V14.01,2013-06-10 04:03:00,
2013-06-09 23:06:00,61.1,57.5,29.80,North,2,2.0,4.0,88,0.00,,,0.29,VWS V14.01,2013-06-10 04:06:00,
2013-06-09 23:12:00,61.1,57.5,29.80,NW,322,1.0,6.0,88,0.00,,,0.29,VWS V14.01,2013-06-10 04:12:00,
2013-06-09 23:17:00,61.0,57.4,29.80,NW,322,0.0,6.0,88,0.00,,,0.29,VWS V14.01,2013-06-10 04:17:00,
2013-06-09 23:22:00,61.0,57.7,29.80,NW,321,0.0,6.0,89,0.00,,,0.29,VWS V14.01,2013-06-10 04:22:00,
2013-06-09 23:27:00,61.0,57.7,29.80,NW,322,0.0,6.0,89,0.00,,,0.29,VWS V14.01,2013-06-10 04:27:00,
2013-06-09 23:32:00,60.9,57.6,29.80,NW,323,0.0,4.0,89,0.00,,,0.29,VWS V14.01,2013-06-10 04:32:00,
2013-06-09 23:37:00,60.9,57.6,29.80,NW,323,0.0,4.0,89,0.00,,,0.29,VWS V14.01,2013-06-10 04:37:00,
2013-06-09 23:42:00,60.9,57.6,29.80,NNW,334,1.0,7.0,89,0.00,,,0.29,VWS V14.01,2013-06-10 04:42:00,
2013-06-09 23:47:00,60.9,57.6,29.80,NNW,335,0.0,7.0,89,0.00,,,0.29,VWS V14.01,2013-06-10 04:47:00,
2013-06-09 23:52:00,60.8,57.5,29.80,NNW,335,0.0,7.0,89,0.00,,,0.29,VWS V14.01,2013-06-10 04:52:00,
2013-06-09 23:58:00,60.8,57.5,29.80,NNW,335,0.0,7.0,89,0.00,,,0.29,VWS V14.01,2013-06-10 04:58:00,